Location: Kershaw
(34.5481°N, 80.5823°W)
Time: 12:52:21
(UTC+00:00)

A-11 Canister half - Pass Details

Date: 12 October 2022
Orbit: 1524 x 1685 km, 47.3° (Epoch: 25 November)

Event Time Altitude Azimuth Distance (km) Brightness Sun altitude
Rises 00:33:37 0° 305° (NW) 4,692 12.6 -21.5°
Reaches altitude 10° 00:36:38 10° 305° (NW) 3,719 11.9 -22.2°
Maximum altitude 00:46:04 84° 219° (SW) 1,582 9.0 -24.1°
Enters shadow 00:51:09 33° 134° (SE) 2,427 9.6 -25.1°
